| time (UTC) | temp F | wind direction | speed MPH | gust MPH | rain 1hr in | rain 24hr in | rain mn in | humidity % | barometer mb |
| 20260905130011 | 77 | 276 | 3.0 | 7.0 | 0.00 | 0.00 | 0.00 | 77 | 1017.6 |
| 20260905125511 | 76 | 283 | 1.0 | 7.0 | 0.00 | 0.00 | 0.00 | 78 | 1017.8 |
| 20260905125011 | 76 | 293 | 4.0 | 9.0 | 0.00 | 0.00 | 0.00 | 78 | 1017.9 |
| 20260905124515 | 76 | 300 | 3.0 | 11.0 | 0.00 | 0.00 | 0.00 | 77 | 1018.1 |
| 20260905124009 | 77 | 271 | 5.0 | 10.0 | 0.00 | 0.00 | 0.00 | 76 | 1018.1 |
| 20260905123508 | 78 | 284 | 3.0 | 9.0 | 0.00 | 0.00 | 0.00 | 75 | 1017.9 |
| 20260905123008 | 78 | 246 | 4.0 | 10.0 | 0.00 | 0.00 | 0.00 | 75 | 1017.9 |
| 20260905122508 | 79 | 265 | 6.0 | 10.0 | 0.00 | 0.00 | 0.00 | 73 | 1017.9 |
| 20260905122006 | 80 | 295 | 6.0 | 10.0 | 0.00 | 0.00 | 0.00 | 72 | 1017.8 |
| 20260905121506 | 79 | 259 | 5.0 | 8.0 | 0.00 | 0.00 | 0.00 | 71 | 1017.7 |
| 20260905121008 | 79 | 36 | 2.0 | 6.0 | 0.00 | 0.00 | 0.00 | 72 | 1017.7 |
| 20260905120503 | 78 | 284 | 2.0 | 8.0 | 0.00 | 0.00 | 0.00 | 73 | 1017.8 |
| 20260905120003 | 78 | 275 | 4.0 | 8.0 | 0.00 | 0.00 | 0.00 | 73 | 1017.9 |
| 20260905115503 | 78 | 273 | 4.0 | 8.0 | 0.00 | 0.00 | 0.00 | 74 | 1017.9 |
| 20260905115003 | 78 | 355 | 3.0 | 7.0 | 0.00 | 0.00 | 0.00 | 74 | 1017.9 |
| 20260905114501 | 78 | 274 | 2.0 | 6.0 | 0.00 | 0.00 | 0.00 | 74 | 1018.0 |
| 20260905114059 | 78 | 288 | 2.0 | 8.0 | 0.00 | 0.00 | 0.00 | 74 | 1018.1 |
| 20260905113600 | 78 | 279 | 2.0 | 8.0 | 0.00 | 0.00 | 0.00 | 74 | 1018.2 |
| 20260905113102 | 78 | 269 | 3.0 | 8.0 | 0.00 | 0.00 | 0.00 | 73 | 1018.3 |
| 20260905112556 | 78 | 312 | 3.0 | 8.0 | 0.00 | 0.00 | 0.00 | 73 | 1018.3 |
| 20260905112055 | 78 | 259 | 3.0 | 8.0 | 0.00 | 0.00 | 0.00 | 72 | 1018.3 |
| 20260905111555 | 78 | 275 | 3.0 | 9.0 | 0.00 | 0.00 | 0.00 | 70 | 1018.4 |
| 20260905111053 | 79 | 270 | 4.0 | 9.0 | 0.00 | 0.00 | 0.00 | 68 | 1018.4 |
| 20260905110551 | 79 | 271 | 2.0 | 7.0 | 0.00 | 0.00 | 0.00 | 64 | 1018.3 |
| 20260905110051 | 78 | 338 | 3.0 | 6.0 | 0.00 | 0.00 | 0.00 | 64 | 1018.3 |
| 20260905105550 | 78 | 273 | 1.0 | 7.0 | 0.00 | 0.00 | 0.00 | 69 | 1018.4 |
| 20260905105049 | 77 | 287 | 2.0 | 9.0 | 0.00 | 0.00 | 0.00 | 68 | 1018.4 |
| 20260905104603 | 77 | 293 | 3.0 | 8.0 | 0.00 | 0.00 | 0.00 | 68 | 1018.4 |
| 20260905104047 | 77 | 307 | 4.0 | 8.0 | 0.00 | 0.00 | 0.00 | 69 | 1018.2 |
| 20260905103548 | 77 | 340 | 2.0 | 7.0 | 0.00 | 0.00 | 0.00 | 70 | 1018.3 |
| 20260905103046 | 76 | 273 | 2.0 | 7.0 | 0.00 | 0.00 | 0.00 | 70 | 1018.2 |
| 20260905102544 | 76 | 313 | 2.0 | 5.0 | 0.00 | 0.00 | 0.00 | 70 | 1018.3 |
| 20260905102043 | 75 | 44 | 1.0 | 7.0 | 0.00 | 0.00 | 0.00 | 72 | 1018.3 |
| 20260905101542 | 74 | 267 | 3.0 | 8.0 | 0.00 | 0.00 | 0.00 | 72 | 1018.4 |
| 20260905101040 | 75 | 254 | 3.0 | 7.0 | 0.00 | 0.00 | 0.00 | 71 | 1018.5 |
| 20260905100538 | 74 | 252 | 3.0 | 7.0 | 0.00 | 0.00 | 0.00 | 71 | 1018.5 |
| 20260905100041 | 74 | 281 | 3.0 | 7.0 | 0.00 | 0.00 | 0.00 | 70 | 1018.4 |
| 20260905095537 | 75 | 279 | 3.0 | 6.0 | 0.00 | 0.00 | 0.00 | 68 | 1018.4 |
| 20260905095037 | 75 | 279 | 1.0 | 6.0 | 0.00 | 0.00 | 0.00 | 68 | 1018.3 |
| 20260905094537 | 74 | 279 | 2.0 | 7.0 | 0.00 | 0.00 | 0.00 | 66 | 1018.3 |
| 20260905094036 | 75 | 250 | 3.0 | 7.0 | 0.00 | 0.00 | 0.00 | 63 | 1018.2 |
| 20260905093537 | 75 | 265 | 4.0 | 7.0 | 0.00 | 0.00 | 0.00 | 60 | 1018.1 |
| 20260905093036 | 75 | 360 | 1.0 | 3.0 | 0.00 | 0.00 | 0.00 | 61 | 1018.1 |
| 20260905092536 | 75 | 360 | 1.0 | 4.0 | 0.00 | 0.00 | 0.00 | 61 | 1018.0 |
| 20260905092034 | 75 | 277 | 1.0 | 4.0 | 0.00 | 0.00 | 0.00 | 60 | 1018.0 |
| 20260905091535 | 76 | 326 | 1.0 | 3.0 | 0.00 | 0.00 | 0.00 | 60 | 1018.1 |
| 20260905091030 | 76 | 326 | 1.0 | 4.0 | 0.00 | 0.00 | 0.00 | 56 | 1018.0 |
| 20260905090530 | 77 | 289 | 1.0 | 4.0 | 0.00 | 0.00 | 0.00 | 51 | 1018.1 |
| 20260905090028 | 78 | 295 | 0.0 | 4.0 | 0.00 | 0.00 | 0.00 | 49 | 1018.1 |
| 20260905085528 | 77 | 176 | 0.0 | 2.0 | 0.00 | 0.00 | 0.00 | 34 | 1018.0 |
| 20260905085026 | 76 | 176 | 0.0 | 2.0 | 0.00 | 0.00 | 0.00 | 45 | 1017.9 |
| 20260905084524 | 75 | 176 | 0.0 | 3.0 | 0.00 | 0.00 | 0.00 | 46 | 1018.0 |
| 20260905084022 | 74 | 134 | 1.0 | 3.0 | 0.00 | 0.00 | 0.00 | 47 | 1018.1 |
| 20260905083521 | 74 | 299 | 0.0 | 4.0 | 0.00 | 0.00 | 0.00 | 53 | 1018.2 |
| 20260905083019 | 74 | 209 | 2.0 | 4.0 | 0.00 | 0.00 | 0.00 | 45 | 1018.1 |
| 20260905082620 | 74 | 61 | 1.0 | 3.0 | 0.00 | 0.00 | 0.00 | 43 | 1018.0 |
| 20260905082019 | 74 | 113 | 1.0 | 4.0 | 0.00 | 0.00 | 0.00 | 47 | 1018.0 |
| 20260905081518 | 75 | 46 | 1.0 | 3.0 | 0.00 | 0.00 | 0.00 | 38 | 1018.1 |
| 20260905081016 | 76 | 188 | 1.0 | 6.0 | 0.00 | 0.00 | 0.00 | 36 | 1018.1 |
| 20260905080515 | 75 | 87 | 2.0 | 7.0 | 0.00 | 0.00 | 0.00 | 31 | 1017.9 |
| 20260905080014 | 75 | 101 | 4.0 | 7.0 | 0.00 | 0.00 | 0.00 | 33 | 1017.8 |
| 20260905075512 | 75 | 107 | 4.0 | 8.0 | 0.00 | 0.00 | 0.00 | 32 | 1017.8 |
| 20260905075011 | 74 | 112 | 6.0 | 8.0 | 0.00 | 0.00 | 0.00 | 32 | 1017.6 |
| 20260905074511 | 74 | 109 | 6.0 | 8.0 | 0.00 | 0.00 | 0.00 | 33 | 1017.5 |
| 20260905074007 | 73 | 101 | 5.0 | 8.0 | 0.00 | 0.00 | 0.00 | 33 | 1017.6 |
| 20260905073506 | 73 | 92 | 6.0 | 8.0 | 0.00 | 0.00 | 0.00 | 34 | 1017.6 |
| 20260905073013 | 72 | 82 | 1.0 | 10.0 | 0.00 | 0.00 | 0.00 | 34 | 1017.7 |
| 20260905072504 | 72 | 107 | 7.0 | 10.0 | 0.00 | 0.00 | 0.00 | 34 | 1017.6 |
| 20260905072006 | 72 | 115 | 8.0 | 11.0 | 0.00 | 0.00 | 0.00 | 34 | 1017.5 |
| 20260905071502 | 72 | 126 | 8.0 | 12.0 | 0.00 | 0.00 | 0.00 | 35 | 1017.4 |
| 20260905071003 | 71 | 101 | 10.0 | 12.0 | 0.00 | 0.00 | 0.00 | 37 | 1017.4 |
| 20260905070603 | 70 | 128 | 5.0 | 8.0 | 0.00 | 0.00 | 0.00 | 48 | 1017.4 |
| 20260905065600 | 71 | 84 | 4.0 | 6.0 | 0.00 | 0.00 | 0.00 | 44 | 1017.5 |
| 20260905065058 | 72 | 74 | 2.0 | 4.0 | 0.00 | 0.00 | 0.00 | 37 | 1017.6 |
| 20260905064557 | 73 | 86 | 0.0 | 4.0 | 0.00 | 0.00 | 0.00 | 35 | 1017.5 |
| 20260905064101 | 73 | 49 | 2.0 | 4.0 | 0.00 | 0.00 | 0.00 | 33 | 1017.4 |
| 20260905063600 | 73 | 96 | 0.0 | 1.0 | 0.00 | 0.00 | 0.00 | 33 | 1017.4 |
| 20260905063056 | 73 | 96 | 0.0 | 10.0 | 0.00 | 0.00 | 0.00 | 33 | 1017.2 |
| 20260905062656 | 73 | 96 | 5.0 | 11.0 | 0.00 | 0.00 | 0.00 | 32 | 1017.2 |
| 20260905062054 | 72 | 104 | 8.0 | 12.0 | 0.00 | 0.00 | 0.00 | 34 | 1017.1 |
| 20260905061556 | 72 | 110 | 8.0 | 12.0 | 0.00 | 0.00 | 0.00 | 34 | 1017.1 |
| 20260905061053 | 73 | 107 | 7.0 | 10.0 | 0.00 | 0.00 | 0.00 | 33 | 1017.1 |
| 20260905060552 | 72 | 106 | 8.0 | 10.0 | 0.00 | 0.00 | 0.00 | 34 | 1017.1 |
| 20260905060051 | 72 | 107 | 7.0 | 9.0 | 0.00 | 0.00 | 0.00 | 37 | 1017.0 |
| 20260905055550 | 71 | 111 | 7.0 | 9.0 | 0.00 | 0.00 | 0.00 | 43 | 1017.1 |
| 20260905055051 | 71 | 97 | 4.0 | 7.0 | 0.00 | 0.00 | 0.00 | 43 | 1017.2 |
| 20260905054550 | 71 | 105 | 3.0 | 7.0 | 0.00 | 0.00 | 0.00 | 40 | 1017.3 |
| 20260905054052 | 71 | 139 | 5.0 | 8.0 | 0.00 | 0.00 | 0.00 | 45 | 1017.3 |
| 20260905053549 | 71 | 213 | 1.0 | 8.0 | 0.00 | 0.00 | 0.00 | 38 | 1017.1 |
| 20260905053049 | 71 | 126 | 4.0 | 8.0 | 0.00 | 0.00 | 0.00 | 37 | 1016.8 |
| 20260905052550 | 71 | 107 | 5.0 | 8.0 | 0.00 | 0.00 | 0.00 | 41 | 1016.8 |
| 20260905052046 | 71 | 109 | 3.0 | 6.0 | 0.00 | 0.00 | 0.00 | 43 | 1016.9 |
| 20260905051546 | 71 | 118 | 0.0 | 3.0 | 0.00 | 0.00 | 0.00 | 50 | 1017.0 |
| 20260905051045 | 71 | 119 | 2.0 | 4.0 | 0.00 | 0.00 | 0.00 | 44 | 1017.1 |
| 20260905050546 | 70 | 172 | 3.0 | 6.0 | 0.00 | 0.00 | 0.00 | 45 | 1017.0 |
| 20260905050046 | 70 | 123 | 2.0 | 6.0 | 0.00 | 0.00 | 0.00 | 42 | 1017.0 |
| 20260905045545 | 71 | 123 | 3.0 | 7.0 | 0.00 | 0.00 | 0.00 | 45 | 1017.0 |
| 20260905045045 | 70 | 102 | 3.0 | 7.0 | 0.00 | 0.00 | 0.00 | 41 | 1017.1 |
| 20260905044548 | 71 | 114 | 5.0 | 7.0 | 0.00 | 0.00 | 0.00 | 43 | 1017.2 |
| 20260905044044 | 71 | 71 | 2.0 | 3.0 | 0.00 | 0.00 | 0.00 | 49 | 1017.2 |
| 20260905043545 | 71 | 71 | 1.0 | 5.0 | 0.00 | 0.00 | 0.00 | 48 | 1017.3 |
| 20260905043043 | 70 | 69 | 3.0 | 5.0 | 0.00 | 0.00 | 0.00 | 48 | 1017.3 |
| 20260905042543 | 70 | 87 | 4.0 | 6.0 | 0.00 | 0.00 | 0.00 | 44 | 1017.2 |
| 20260905042043 | 71 | 309 | 0.0 | 6.0 | 0.00 | 0.00 | 0.00 | 65 | 1017.2 |
| 20260905041550 | 71 | 309 | 2.0 | 7.0 | 0.00 | 0.00 | 0.00 | 44 | 1017.2 |
| 20260905041041 | 71 | 100 | 3.0 | 8.0 | 0.00 | 0.00 | 0.00 | 43 | 1017.0 |
| 20260905040540 | 70 | 109 | 6.0 | 8.0 | 0.00 | 0.00 | 0.00 | 46 | 1017.0 |
| 20260905040039 | 68 | 97 | 5.0 | 8.0 | 0.00 | 0.00 | 0.00 | 59 | 1017.1 |
| 20260905035538 | 65 | 92 | 5.0 | 7.0 | 0.00 | 0.00 | 0.00 | 77 | 1017.2 |
| 20260905035038 | 64 | 77 | 1.0 | 3.0 | 0.00 | 0.00 | 0.00 | 86 | 1017.2 |
| 20260905034546 | 65 | 77 | 2.0 | 3.0 | 0.00 | 0.00 | 0.00 | 91 | 1017.2 |
| 20260905034034 | 65 | 77 | 0.0 | 4.0 | 0.00 | 0.00 | 0.00 | 91 | 1017.3 |
| 20260905033535 | 65 | 77 | 2.0 | 5.0 | 0.00 | 0.00 | 0.00 | 91 | 1017.3 |
| 20260905033034 | 65 | 77 | 3.0 | 5.0 | 0.00 | 0.00 | 0.00 | 92 | 1017.5 |
| 20260905032533 | 65 | 77 | 2.0 | 3.0 | 0.00 | 0.00 | 0.00 | 92 | 1017.5 |
| 20260905032032 | 65 | 77 | 2.0 | 4.0 | 0.00 | 0.00 | 0.00 | 93 | 1017.7 |
| 20260905031534 | 65 | 77 | 3.0 | 4.0 | 0.00 | 0.00 | 0.00 | 92 | 1017.7 |
| 20260905031033 | 65 | 77 | 2.0 | 5.0 | 0.00 | 0.00 | 0.00 | 93 | 1017.8 |
| 20260905030531 | 65 | 77 | 3.0 | 5.0 | 0.00 | 0.00 | 0.00 | 93 | 1017.8 |
| 20260905030031 | 65 | 77 | 2.0 | 4.0 | 0.00 | 0.00 | 0.00 | 94 | 1017.8 |
| 20260905025532 | 65 | 77 | 3.0 | 4.0 | 0.00 | 0.00 | 0.00 | 93 | 1017.8 |
| 20260905025030 | 65 | 77 | 2.0 | 4.0 | 0.00 | 0.00 | 0.00 | 94 | 1017.8 |
| 20260905024531 | 65 | 77 | 3.0 | 4.0 | 0.00 | 0.00 | 0.00 | 94 | 1017.9 |
| 20260905024027 | 65 | 19 | 2.0 | 3.0 | 0.00 | 0.00 | 0.00 | 94 | 1017.9 |
| 20260905023527 | 65 | 19 | 0.0 | 2.0 | 0.00 | 0.00 | 0.00 | 94 | 1018.0 |
| 20260905023027 | 65 | 19 | 0.0 | 3.0 | 0.00 | 0.00 | 0.00 | 94 | 1017.9 |
| 20260905022526 | 66 | 19 | 2.0 | 3.0 | 0.00 | 0.00 | 0.00 | 94 | 1018.0 |
| 20260905022025 | 66 | 19 | 0.0 | 1.0 | 0.00 | 0.00 | 0.00 | 94 | 1018.1 |
| 20260905021531 | 66 | 19 | 0.0 | 1.0 | 0.00 | 0.00 | 0.00 | 94 | 1018.2 |
| 20260905021025 | 66 | 19 | 0.0 | 4.0 | 0.00 | 0.00 | 0.00 | 94 | 1018.2 |
| 20260905020524 | 66 | 19 | 2.0 | 4.0 | 0.00 | 0.00 | 0.00 | 94 | 1018.3 |
| 20260905020023 | 66 | 70 | 0.0 | 4.0 | 0.00 | 0.00 | 0.00 | 93 | 1018.4 |
| 20260905015528 | 66 | 209 | 2.0 | 4.0 | 0.00 | 0.00 | 0.00 | 94 | 1018.4 |
| 20260905015022 | 66 | 162 | 0.0 | 4.0 | 0.00 | 0.00 | 0.00 | 93 | 1018.4 |
| 20260905014522 | 66 | 162 | 2.0 | 7.0 | 0.00 | 0.00 | 0.00 | 93 | 1018.5 |
| 20260905014021 | 66 | 146 | 2.0 | 7.0 | 0.00 | 0.00 | 0.00 | 93 | 1018.6 |
| 20260905013522 | 66 | 209 | 5.0 | 7.0 | 0.00 | 0.00 | 0.00 | 93 | 1018.5 |
| 20260905013019 | 67 | 211 | 5.0 | 7.0 | 0.00 | 0.00 | 0.00 | 92 | 1018.4 |
| 20260905012518 | 67 | 191 | 2.0 | 3.0 | 0.00 | 0.00 | 0.00 | 92 | 1018.3 |
| 20260905012018 | 67 | 248 | 1.0 | 4.0 | 0.00 | 0.00 | 0.00 | 92 | 1018.4 |
| 20260905011516 | 67 | 196 | 2.0 | 7.0 | 0.00 | 0.00 | 0.00 | 91 | 1018.7 |
| 20260905011015 | 67 | 209 | 3.0 | 6.0 | 0.00 | 0.00 | 0.00 | 91 | 1018.7 |
| 20260905010515 | 68 | 175 | 2.0 | 5.0 | 0.00 | 0.00 | 0.00 | 90 | 1018.8 |
| 20260905010015 | 68 | 160 | 1.0 | 3.0 | 0.00 | 0.00 | 0.00 | 89 | 1018.9 |
| 20260905005513 | 68 | 78 | 1.0 | 3.0 | 0.00 | 0.00 | 0.00 | 88 | 1019.1 |
| 20260905005013 | 68 | 245 | 0.0 | 7.0 | 0.00 | 0.00 | 0.00 | 88 | 1019.2 |
| 20260905004511 | 68 | 248 | 3.0 | 7.0 | 0.00 | 0.00 | 0.00 | 86 | 1019.1 |
| 20260905004010 | 68 | 243 | 2.0 | 6.0 | 0.00 | 0.00 | 0.00 | 86 | 1018.8 |
| 20260905003513 | 68 | 232 | 0.0 | 0.0 | 0.00 | 0.00 | 0.00 | 86 | 1018.6 |
| 20260905003010 | 68 | 232 | 0.0 | 0.0 | 0.00 | 0.00 | 0.00 | 85 | 1018.5 |
| 20260905002509 | 69 | 232 | 0.0 | 0.0 | 0.00 | 0.00 | 0.00 | 85 | 1018.5 |
| 20260905002008 | 69 | 5 | 0.0 | 0.0 | 0.00 | 0.00 | 0.00 | 86 | 1018.6 |
| 20260905001508 | 69 | 5 | 0.0 | 0.0 | 0.00 | 0.00 | 0.00 | 86 | 1018.6 |
| 20260905001006 | 69 | 5 | 0.0 | 0.0 | 0.00 | 0.00 | 0.00 | 84 | 1018.6 |
| 20260905000506 | 69 | 5 | 0.0 | 0.0 | 0.00 | 0.00 | 0.00 | 84 | 1018.7 |
| 20260905000006 | 70 | 279 | 0.0 | 0.0 | 0.00 | 0.00 | 0.00 | 84 | 1018.6 |
| 20260904235504 | 70 | 88 | 0.0 | 0.0 | 0.00 | 0.00 | 0.00 | 83 | 1018.6 |
| 20260904235002 | 70 | 88 | 0.0 | 0.0 | 0.00 | 0.00 | 0.00 | 82 | 1018.8 |
| 20260904234501 | 70 | 323 | 0.0 | 0.0 | 0.00 | 0.00 | 0.00 | 81 | 1018.9 |
| 20260904234100 | 70 | 323 | 0.0 | 0.0 | 0.00 | 0.00 | 0.00 | 79 | 1019.1 |
| 20260904233600 | 71 | 323 | 0.0 | 0.0 | 0.00 | 0.00 | 0.00 | 79 | 1019.2 |
| 20260904233059 | 71 | 323 | 0.0 | 0.0 | 0.00 | 0.00 | 0.00 | 78 | 1019.1 |
| 20260904232559 | 71 | 323 | 0.0 | 0.0 | 0.00 | 0.00 | 0.00 | 78 | 1019.1 |
| 20260904232057 | 71 | 323 | 0.0 | 0.0 | 0.00 | 0.00 | 0.00 | 77 | 1019.1 |
| 20260904231556 | 71 | 323 | 0.0 | 0.0 | 0.00 | 0.00 | 0.00 | 76 | 1019.1 |
| 20260904231055 | 71 | 323 | 0.0 | 0.0 | 0.00 | 0.00 | 0.00 | 74 | 1019.0 |
| 20260904230554 | 71 | 323 | 0.0 | 4.0 | 0.00 | 0.00 | 0.00 | 71 | 1019.0 |
| 20260904230053 | 72 | 323 | 1.0 | 4.0 | 0.00 | 0.00 | 0.00 | 71 | 1019.0 |
| 20260904225554 | 73 | 38 | 1.0 | 3.0 | 0.00 | 0.00 | 0.00 | 63 | 1019.0 |
| 20260904225052 | 72 | 38 | 1.0 | 3.0 | 0.00 | 0.00 | 0.00 | 61 | 1019.0 |
| 20260904224554 | 73 | 38 | 0.0 | 2.0 | 0.00 | 0.00 | 0.00 | 70 | 1019.1 |
| 20260904224051 | 74 | 38 | 0.0 | 2.0 | 0.00 | 0.00 | 0.00 | 64 | 1019.1 |
| 20260904223551 | 75 | 252 | 0.0 | 4.0 | 0.00 | 0.00 | 0.00 | 55 | 1019.1 |
| 20260904223051 | 76 | 252 | 1.0 | 10.0 | 0.00 | 0.00 | 0.00 | 56 | 1019.1 |
| 20260904222550 | 77 | 252 | 2.0 | 12.0 | 0.00 | 0.00 | 0.00 | 36 | 1019.1 |
| 20260904222052 | 75 | 105 | 8.0 | 12.0 | 0.00 | 0.00 | 0.00 | 37 | 1019.0 |
| 20260904221555 | 71 | 87 | 4.0 | 8.0 | 0.00 | 0.00 | 0.00 | 59 | 1019.0 |
| 20260904221050 | 69 | 59 | 3.0 | 5.0 | 0.00 | 0.00 | 0.00 | 75 | 1019.1 |
| 20260904220550 | 70 | 32 | 1.0 | 3.0 | 0.00 | 0.00 | 0.00 | 81 | 1019.3 |
| 20260904220050 | 70 | 32 | 0.0 | 3.0 | 0.00 | 0.00 | 0.00 | 83 | 1019.2 |
| 20260904215549 | 70 | 32 | 1.0 | 3.0 | 0.00 | 0.00 | 0.00 | 83 | 1019.2 |
| 20260904215049 | 70 | 32 | 1.0 | 2.0 | 0.00 | 0.00 | 0.00 | 82 | 1019.3 |
| 20260904214600 | 70 | 32 | 0.0 | 2.0 | 0.00 | 0.00 | 0.00 | 81 | 1019.3 |
| 20260904214049 | 71 | 32 | 1.0 | 2.0 | 0.00 | 0.00 | 0.00 | 81 | 1019.2 |
| 20260904213549 | 71 | 32 | 0.0 | 3.0 | 0.00 | 0.00 | 0.00 | 79 | 1019.2 |
| 20260904213048 | 72 | 32 | 2.0 | 4.0 | 0.00 | 0.00 | 0.00 | 77 | 1019.2 |
| 20260904212547 | 73 | 32 | 2.0 | 4.0 | 0.00 | 0.00 | 0.00 | 76 | 1019.1 |
| 20260904212049 | 74 | 315 | 0.0 | 3.0 | 0.00 | 0.00 | 0.00 | 73 | 1019.2 |
| 20260904211552 | 76 | 315 | 2.0 | 7.0 | 0.00 | 0.00 | 0.00 | 70 | 1019.1 |
| 20260904211049 | 80 | 261 | 3.0 | 8.0 | 0.00 | 0.00 | 0.00 | 46 | 1019.0 |
| 20260904210550 | 80 | 108 | 6.0 | 9.0 | 0.00 | 0.00 | 0.00 | 29 | 1018.8 |
| 20260904210047 | 80 | 111 | 7.0 | 10.0 | 0.00 | 0.00 | 0.00 | 30 | 1018.8 |
| 20260904205549 | 80 | 105 | 7.0 | 10.0 | 0.00 | 0.00 | 0.00 | 30 | 1018.8 |
| 20260904205048 | 80 | 111 | 8.0 | 10.0 | 0.00 | 0.00 | 0.00 | 30 | 1018.8 |
| 20260904204550 | 80 | 126 | 6.0 | 10.0 | 0.00 | 0.00 | 0.00 | 30 | 1018.7 |
| 20260904204048 | 81 | 111 | 6.0 | 9.0 | 0.00 | 0.00 | 0.00 | 29 | 1018.6 |
| 20260904203545 | 80 | 119 | 5.0 | 9.0 | 0.00 | 0.00 | 0.00 | 30 | 1018.5 |
| 20260904203044 | 80 | 96 | 6.0 | 9.0 | 0.00 | 0.00 | 0.00 | 33 | 1018.6 |
| 20260904202544 | 80 | 115 | 2.0 | 6.0 | 0.00 | 0.00 | 0.00 | 34 | 1018.5 |
| 20260904202042 | 80 | 84 | 2.0 | 4.0 | 0.00 | 0.00 | 0.00 | 36 | 1018.5 |
| 20260904201541 | 79 | 97 | 2.0 | 8.0 | 0.00 | 0.00 | 0.00 | 40 | 1018.4 |
| 20260904201040 | 78 | 86 | 2.0 | 9.0 | 0.00 | 0.00 | 0.00 | 44 | 1018.3 |
| 20260904200541 | 75 | 60 | 5.0 | 9.0 | 0.00 | 0.00 | 0.00 | 53 | 1018.2 |
| 20260904200141 | 74 | 33 | 3.0 | 5.0 | 0.00 | 0.00 | 0.00 | 70 | 1018.2 |
| 20260904195540 | 76 | 77 | 0.0 | 1.0 | 0.00 | 0.00 | 0.00 | 75 | 1018.1 |
| 20260904195040 | 77 | 254 | 0.0 | 3.0 | 0.00 | 0.00 | 0.00 | 74 | 1018.1 |
| 20260904194541 | 78 | 254 | 1.0 | 8.0 | 0.00 | 0.00 | 0.00 | 71 | 1018.0 |
| 20260904194038 | 78 | 102 | 4.0 | 8.0 | 0.00 | 0.00 | 0.00 | 67 | 1018.0 |
| 20260904193538 | 76 | 115 | 5.0 | 8.0 | 0.00 | 0.00 | 0.00 | 78 | 1018.0 |
| 20260904193038 | 73 | 109 | 5.0 | 7.0 | 0.00 | 0.00 | 0.00 | 86 | 1018.0 |
| 20260904192537 | 72 | 78 | 1.0 | 4.0 | 0.00 | 0.00 | 0.00 | 86 | 1018.1 |
| 20260904192041 | 72 | 273 | 0.0 | 2.0 | 0.00 | 0.00 | 0.00 | 85 | 1018.3 |
| 20260904191537 | 72 | 273 | 1.0 | 4.0 | 0.00 | 0.00 | 0.00 | 85 | 1018.3 |
| 20260904191037 | 73 | 273 | 2.0 | 4.0 | 0.00 | 0.00 | 0.00 | 84 | 1018.3 |
| 20260904190539 | 74 | 294 | 0.0 | 3.0 | 0.00 | 0.00 | 0.00 | 84 | 1018.3 |
| 20260904190037 | 73 | 86 | 1.0 | 3.0 | 0.00 | 0.00 | 0.00 | 84 | 1018.2 |
| 20260904185536 | 73 | 86 | 1.0 | 3.0 | 0.00 | 0.00 | 0.00 | 84 | 1018.2 |
| 20260904185040 | 73 | 86 | 1.0 | 4.0 | 0.00 | 0.00 | 0.00 | 84 | 1018.4 |
| 20260904184536 | 73 | 321 | 0.0 | 4.0 | 0.00 | 0.00 | 0.00 | 84 | 1018.5 |
| 20260904184036 | 74 | 317 | 2.0 | 7.0 | 0.00 | 0.00 | 0.00 | 83 | 1018.5 |
| 20260904183535 | 74 | 275 | 3.0 | 8.0 | 0.00 | 0.00 | 0.00 | 83 | 1018.5 |
| 20260904183035 | 74 | 296 | 5.0 | 8.0 | 0.00 | 0.00 | 0.00 | 82 | 1018.3 |
| 20260904182537 | 74 | 5 | 0.0 | 5.0 | 0.00 | 0.00 | 0.00 | 82 | 1018.2 |
| 20260904182034 | 74 | 328 | 1.0 | 4.0 | 0.00 | 0.00 | 0.00 | 82 | 1018.2 |
| 20260904181538 | 74 | 279 | 3.0 | 7.0 | 0.00 | 0.00 | 0.00 | 82 | 1018.3 |
| 20260904181034 | 74 | 309 | 1.0 | 8.0 | 0.00 | 0.00 | 0.00 | 83 | 1018.4 |
| 20260904180536 | 74 | 342 | 3.0 | 8.0 | 0.00 | 0.00 | 0.00 | 82 | 1018.4 |
| 20260904180047 | 74 | 288 | 3.0 | 8.0 | 0.00 | 0.00 | 0.00 | 82 | 1018.3 |
| 20260904175534 | 74 | 260 | 3.0 | 7.0 | 0.00 | 0.00 | 0.00 | 81 | 1018.2 |
| 20260904175035 | 74 | 270 | 5.0 | 7.0 | 0.00 | 0.00 | 0.00 | 81 | 1018.1 |
| 20260904174542 | 74 | 311 | 3.0 | 8.0 | 0.00 | 0.00 | 0.00 | 80 | 1018.0 |
| 20260904174032 | 75 | 277 | 5.0 | 8.0 | 0.00 | 0.00 | 0.00 | 79 | 1018.0 |
| 20260904173532 | 75 | 273 | 4.0 | 8.0 | 0.00 | 0.00 | 0.00 | 79 | 1017.9 |
| 20260904173039 | 75 | 294 | 2.0 | 8.0 | 0.00 | 0.00 | 0.00 | 80 | 1017.8 |
| 20260904172532 | 75 | 11 | 4.0 | 8.0 | 0.00 | 0.00 | 0.00 | 79 | 1017.8 |
| 20260904172031 | 75 | 334 | 3.0 | 9.0 | 0.00 | 0.00 | 0.00 | 79 | 1017.8 |
| 20260904171604 | 75 | 246 | 4.0 | 9.0 | 0.00 | 0.00 | 0.00 | 78 | 1017.8 |
| 20260904171032 | 76 | 287 | 5.0 | 9.0 | 0.00 | 0.00 | 0.00 | 77 | 1017.7 |
| 20260904170532 | 76 | 260 | 2.0 | 8.0 | 0.00 | 0.00 | 0.00 | 77 | 1017.7 |
| 20260904170032 | 76 | 293 | 3.0 | 6.0 | 0.00 | 0.00 | 0.00 | 78 | 1017.7 |
| 20260904165532 | 76 | 265 | 3.0 | 8.0 | 0.00 | 0.00 | 0.00 | 78 | 1017.7 |
| 20260904165031 | 75 | 274 | 4.0 | 9.0 | 0.00 | 0.00 | 0.00 | 79 | 1017.7 |
| 20260904164531 | 76 | 279 | 5.0 | 9.0 | 0.00 | 0.00 | 0.00 | 77 | 1017.7 |
| 20260904164029 | 77 | 272 | 4.0 | 9.0 | 0.00 | 0.00 | 0.00 | 77 | 1017.7 |
| 20260904163529 | 76 | 266 | 3.0 | 9.0 | 0.00 | 0.00 | 0.00 | 77 | 1017.7 |
| 20260904163029 | 76 | 333 | 3.0 | 9.0 | 0.00 | 0.00 | 0.00 | 77 | 1017.8 |
| 20260904162529 | 76 | 302 | 5.0 | 10.0 | 0.00 | 0.00 | 0.00 | 76 | 1017.8 |
| 20260904162030 | 77 | 257 | 4.0 | 11.0 | 0.00 | 0.00 | 0.00 | 76 | 1017.9 |
| 20260904161529 | 76 | 311 | 6.0 | 11.0 | 0.00 | 0.00 | 0.00 | 76 | 1017.9 |
| 20260904161028 | 76 | 331 | 4.0 | 9.0 | 0.00 | 0.00 | 0.00 | 77 | 1017.9 |
| 20260904160528 | 76 | 261 | 5.0 | 9.0 | 0.00 | 0.00 | 0.00 | 75 | 1017.9 |
| 20260904160034 | 77 | 307 | 4.0 | 9.0 | 0.00 | 0.00 | 0.00 | 75 | 1017.9 |
| 20260904155529 | 77 | 287 | 4.0 | 9.0 | 0.00 | 0.00 | 0.00 | 75 | 1018.0 |
| 20260904155028 | 77 | 275 | 6.0 | 8.0 | 0.00 | 0.00 | 0.00 | 75 | 1017.9 |
| 20260904154537 | 77 | 288 | 5.0 | 9.0 | 0.00 | 0.00 | 0.00 | 76 | 1018.0 |
| 20260904154028 | 77 | 255 | 5.0 | 9.0 | 0.00 | 0.00 | 0.00 | 76 | 1018.1 |
| 20260904153531 | 77 | 306 | 5.0 | 9.0 | 0.00 | 0.00 | 0.00 | 76 | 1018.1 |
| 20260904153032 | 77 | 262 | 4.0 | 10.0 | 0.00 | 0.00 | 0.00 | 77 | 1018.1 |
| 20260904152523 | 76 | 275 | 4.0 | 10.0 | 0.00 | 0.00 | 0.00 | 78 | 1018.3 |
| 20260904152023 | 76 | 263 | 5.0 | 11.0 | 0.00 | 0.00 | 0.00 | 77 | 1018.3 |
| 20260904151523 | 76 | 244 | 4.0 | 11.0 | 0.00 | 0.00 | 0.00 | 77 | 1018.3 |
| 20260904151024 | 76 | 281 | 6.0 | 10.0 | 0.00 | 0.00 | 0.00 | 77 | 1018.3 |
| 20260904150523 | 76 | 273 | 5.0 | 9.0 | 0.00 | 0.00 | 0.00 | 77 | 1018.3 |
| 20260904150022 | 76 | 288 | 5.0 | 11.0 | 0.00 | 0.00 | 0.00 | 77 | 1018.3 |
| 20260904145522 | 76 | 325 | 4.0 | 11.0 | 0.00 | 0.00 | 0.00 | 77 | 1018.4 |
| 20260904145029 | 77 | 239 | 5.0 | 10.0 | 0.00 | 0.00 | 0.00 | 76 | 1018.5 |
| 20260904144522 | 76 | 229 | 6.0 | 9.0 | 0.00 | 0.00 | 0.00 | 76 | 1018.5 |
| 20260904144024 | 76 | 281 | 6.0 | 10.0 | 0.00 | 0.00 | 0.00 | 75 | 1018.5 |
| 20260904143520 | 77 | 308 | 7.0 | 11.0 | 0.00 | 0.00 | 0.00 | 75 | 1018.5 |
| 20260904143020 | 77 | 274 | 6.0 | 10.0 | 0.00 | 0.00 | 0.00 | 76 | 1018.4 |
| 20260904142521 | 77 | 283 | 5.0 | 10.0 | 0.00 | 0.00 | 0.00 | 75 | 1018.5 |
| 20260904142020 | 77 | 269 | 6.0 | 10.0 | 0.00 | 0.00 | 0.00 | 75 | 1018.5 |
| 20260904141520 | 77 | 263 | 4.0 | 9.0 | 0.00 | 0.00 | 0.00 | 76 | 1018.5 |
| 20260904141019 | 76 | 310 | 4.0 | 9.0 | 0.00 | 0.00 | 0.00 | 76 | 1018.5 |
| 20260904140519 | 76 | 281 | 5.0 | 11.0 | 0.00 | 0.00 | 0.00 | 76 | 1018.6 |
| 20260904140020 | 77 | 262 | 5.0 | 11.0 | 0.00 | 0.00 | 0.00 | 76 | 1018.7 |
| 20260904135522 | 77 | 271 | 6.0 | 10.0 | 0.00 | 0.00 | 0.00 | 77 | 1018.8 |
| 20260904135018 | 76 | 296 | 5.0 | 10.0 | 0.00 | 0.00 | 0.00 | 78 | 1018.7 |
| 20260904134519 | 76 | 270 | 6.0 | 10.0 | 0.00 | 0.00 | 0.00 | 79 | 1018.8 |
| 20260904134019 | 76 | 278 | 3.0 | 8.0 | 0.00 | 0.00 | 0.00 | 79 | 1018.8 |
| 20260904133518 | 75 | 265 | 5.0 | 9.0 | 0.00 | 0.00 | 0.00 | 79 | 1018.8 |
| 20260904133018 | 75 | 257 | 4.0 | 9.0 | 0.00 | 0.00 | 0.00 | 79 | 1019.0 |
| 20260904132518 | 75 | 265 | 4.0 | 10.0 | 0.00 | 0.00 | 0.00 | 80 | 1019.0 |
| 20260904132016 | 76 | 267 | 7.0 | 10.0 | 0.00 | 0.00 | 0.00 | 78 | 1019.0 |
| 20260904131516 | 76 | 253 | 6.0 | 10.0 | 0.00 | 0.00 | 0.00 | 78 | 1019.1 |
| 20260904131014 | 76 | 304 | 3.0 | 10.0 | 0.00 | 0.00 | 0.00 | 79 | 1019.1 |
| 20260904130513 | 75 | 284 | 2.0 | 8.0 | 0.00 | 0.00 | 0.00 | 80 | 1019.1 |